GFSCGP_700_spd_003.txt.gz
Wind_Speed
35 38 39 41 43 41 37 39 40 47 44 44 47 47 50 48 41 42 43 45 45 38 32 31 33 36 34 30 30 29 31 32 34 34 31 25 23 25 28 31 34 37 39 41
44 50 45 38 38 39 39 43 46 50 46 47 47 51 53 48 49 45 44 47 40 36 32 29 31 31 31 26 26 25 25 27 29 28 23 20 20 21 25 29 32 35 37 38
53 54 45 42 41 36 46 42 48 52 52 56 55 59 54 49 41 40 46 42 39 21 19 24 27 26 26 24 22 22 21 23 24 21 19 15 14 15 21 25 28 32 35 36
45 48 45 46 48 44 56 51 53 51 41 35 36 29 41 39 42 43 44 39 14 16 22 24 25 26 24 22 22 22 23 23 23 23 21 16 13 16 23 28 30 32 33 34
52 44 41 36 43 34 46 40 41 43 38 37 31 25 43 29 32 40 25 18 22 23 21 31 30 29 23 22 18 20 23 23 26 24 27 20 17 19 26 28 27 30 32 34
50 49 46 44 40 35 39 40 36 35 36 20 26 24 40 32 25 21 23 21 21 23 30 31 34 30 24 22 20 19 21 26 25 26 31 27 22 21 26 30 28 26 31 34
40 41 38 35 41 43 44 42 9 5 2 14 20 29 50 36 37 35 30 30 32 32 31 31 30 22 25 22 18 19 20 26 26 27 29 31 30 27 26 33 33 26 28 31
32 37 33 37 39 38 37 37 18 7 9 21 27 20 37 29 35 48 43 32 33 32 31 29 22 20 20 18 17 15 23 24 24 27 28 29 34 33 32 32 37 30 27 28
36 47 46 39 35 32 28 28 37 28 33 8 33 42 52 42 28 19 27 26 25 26 29 26 22 18 15 15 14 22 25 22 29 32 30 28 33 39 36 35 35 35 31 32
43 35 49 42 36 37 33 29 14 15 3 7 26 26 35 37 28 16 25 23 22 25 26 26 24 20 11 12 26 35 37 32 36 36 34 36 34 37 38 36 34 36 38 34
21 33 46 31 38 34 33 39 35 28 26 12 14 28 32 12 16 29 29 25 21 25 23 20 17 20 34 39 38 31 32 36 33 35 38 39 37 38 39 40 39 38 39 37
34 16 20 29 30 37 30 24 32 26 18 22 25 32 57 50 19 15 2 5 5 16 22 28 32 37 42 38 34 38 36 34 36 41 42 40 40 40 40 41 40 40 40 39
34 24 16 23 39 38 42 49 40 32 34 29 20 32 63 60 60 53 48 39 37 38 38 45 50 46 44 41 38 36 37 41 41 38 41 43 42 42 42 42 41 43 43 40
44 43 36 28 37 39 28 33 36 35 29 43 42 56 58 51 59 63 64 55 57 60 59 57 53 44 43 44 42 43 46 46 48 43 42 42 43 42 42 42 41 44 44 43
42 42 44 55 58 55 58 54 60 62 62 46 59 56 60 58 64 57 50 51 58 60 57 50 48 51 47 45 45 40 40 42 42 43 42 42 42 42 45 43 42 42 43 44
47 57 53 53 62 70 71 75 73 74 77 71 67 61 74 66 54 51 56 68 65 63 58 55 49 45 44 42 44 44 45 39 42 45 42 42 43 43 42 39 40 41 42 43
35 42 37 50 54 57 47 65 69 70 66 65 61 71 65 69 70 63 67 62 63 58 61 58 50 41 42 46 48 50 44 42 44 40 34 33 35 34 34 35 34 32 30 31
64 53 40 38 35 23 42 47 45 53 63 63 69 70 68 70 65 69 57 63 61 59 54 43 48 44 43 43 44 49 46 39 37 35 31 29 28 28 29 26 26 25 26 29
47 41 37 32 31 37 45 47 53 56 65 61 62 61 62 60 60 58 55 56 56 56 47 38 32 30 28 32 34 39 39 32 32 31 30 29 26 25 27 27 26 25 27 28
41 46 52 49 35 32 57 48 28 35 52 26 21 18 22 32 33 34 42 53 53 48 39 36 33 26 25 21 24 27 26 28 33 29 29 29 31 29 28 28 28 27 30 31
44 37 38 38 30 22 17 28 33 26 21 28 31 36 34 24 20 27 27 35 35 40 45 44 43 41 38 36 32 33 33 31 27 31 30 30 30 31 32 30 31 33 33 33
30 24 34 39 40 31 31 30 19 36 27 26 28 42 50 49 45 46 35 30 27 34 34 34 34 36 38 42 40 38 39 35 35 32 35 34 33 33 34 34 34 34 36 37
30 22 14 17 20 30 40 37 49 38 40 51 57 64 59 62 64 64 63 64 52 34 31 29 29 34 34 34 37 41 40 40 41 43 40 39 38 35 35 36 35 36 37 39
41 43 41 42 52 52 61 49 32 42 46 53 56 58 56 54 54 60 62 63 65 63 53 47 39 38 38 38 44 42 46 46 47 43 38 39 37 35 35 36 37 41 40 42
39 37 42 47 47 44 45 43 49 52 53 54 52 49 49 50 50 51 54 54 56 64 67 64 55 58 51 52 47 44 42 42 39 41 42 40 35 37 35 34 37 42 44 47
32 37 39 46 44 45 52 52 54 56 57 50 47 45 42 41 45 46 50 51 55 56 55 59 58 56 64 55 58 58 60 53 54 57 55 56 57 56 53 48 48 48 49 53

GFSCGP_700_spd_006.txt.gz
Wind_Speed
33 37 38 37 39 43 45 45 47 45 42 50 54 57 55 51 53 54 49 45 43 41 32 30 30 32 38 37 36 35 33 31 34 34 37 39 37 33 30 29 30 31 32 33
42 50 46 41 43 44 44 47 49 53 48 50 55 61 58 57 57 54 51 46 40 38 34 35 30 32 34 32 29 30 29 30 31 32 32 34 33 30 29 29 27 25 25 28
51 50 42 40 43 41 51 47 54 55 50 50 54 66 62 52 47 44 42 39 36 34 27 19 18 26 26 28 26 23 24 25 28 30 32 32 31 32 28 19 14 15 20 25
44 44 41 39 44 43 58 49 52 48 39 33 34 41 49 56 50 44 38 31 23 28 18 18 19 24 28 24 23 25 23 26 29 30 29 27 27 25 20 15 13 14 20 24
42 38 38 36 41 30 45 36 41 42 44 41 26 19 36 36 38 28 13 15 27 19 25 31 28 30 31 27 24 25 26 28 27 25 27 27 28 27 20 15 15 16 17 24
37 36 41 39 37 40 34 32 34 38 35 19 24 25 51 17 15 15 25 31 28 31 33 29 32 33 31 29 26 21 20 23 20 25 24 26 29 25 23 24 22 20 22 23
38 41 40 34 33 35 37 36 8 5 3 13 19 26 50 38 37 28 30 40 36 34 31 32 35 32 30 24 23 19 20 20 16 18 23 26 26 28 29 26 25 23 24 24
31 42 33 33 31 33 32 34 21 7 10 23 29 23 40 37 34 40 32 26 31 35 31 28 35 30 30 23 17 18 21 18 13 18 23 27 30 28 28 26 26 23 25 27
28 46 42 42 39 34 34 28 39 30 36 8 33 45 52 39 14 19 21 18 24 26 23 27 30 31 29 21 15 15 14 15 22 27 25 29 33 31 27 25 27 28 26 28
33 30 45 34 28 35 36 34 17 14 5 8 22 25 38 37 27 19 24 19 24 18 21 20 23 26 22 18 12 11 19 25 30 29 30 33 36 34 34 33 31 30 29 30
28 25 45 35 34 35 33 36 37 30 22 12 16 25 44 42 42 31 22 36 37 29 25 21 16 14 13 18 22 26 30 35 27 26 29 35 38 39 38 36 36 36 36 35
32 23 24 47 42 30 29 32 38 28 20 27 22 24 57 52 63 56 46 28 20 24 20 16 18 25 26 34 41 41 37 40 34 38 44 41 38 37 42 43 42 42 40 40
35 33 31 27 40 45 57 50 39 41 42 39 26 32 52 57 64 49 56 54 49 47 53 55 44 42 45 56 61 52 48 48 40 40 39 41 45 44 44 46 46 46 46 46
45 46 45 32 39 36 20 37 42 46 40 41 43 49 58 64 60 51 60 69 68 60 50 50 43 40 46 51 46 46 44 44 45 42 43 49 52 51 49 48 47 46 46 50
41 50 50 59 59 55 61 62 61 53 58 54 63 60 55 65 66 67 76 69 72 70 62 64 52 49 49 43 38 43 46 48 50 50 49 50 53 52 50 47 48 48 51 50
27 31 48 54 63 69 65 65 68 68 68 72 64 59 69 72 71 80 71 59 60 57 50 49 58 57 49 47 47 47 49 50 52 51 52 51 52 52 51 49 50 51 52 53
53 45 43 38 28 43 39 52 64 74 68 61 57 69 52 52 51 51 53 54 47 44 49 51 52 54 56 54 49 46 49 48 54 55 58 58 55 51 49 49 50 51 52 49
57 54 42 48 44 27 41 41 33 40 45 52 48 33 30 40 48 53 51 48 50 52 50 53 56 56 50 48 44 47 42 47 50 52 54 55 53 53 49 47 45 46 47 45
44 47 37 32 41 42 40 37 21 28 31 25 18 23 23 24 32 29 42 40 39 42 41 43 47 49 48 39 33 35 41 43 43 46 46 46 43 41 39 41 43 44 42 37
25 22 30 37 17 13 14 29 32 31 25 23 17 27 32 30 29 21 24 23 25 27 30 33 36 38 39 34 31 29 30 31 30 30 31 32 32 34 38 37 38 38 38 38
24 24 28 34 35 29 25 33 41 15 17 45 32 34 44 49 48 50 49 47 51 47 47 39 37 29 27 28 25 28 30 34 34 32 33 34 33 33 33 34 37 40 42 43
21 17 19 14 15 17 27 38 34 37 37 38 46 45 47 51 51 52 58 62 64 63 57 55 52 40 29 25 25 28 24 26 38 39 37 37 37 40 40 40 40 40 41 43
22 22 21 18 30 43 49 42 36 35 42 36 39 45 50 53 53 50 52 52 57 57 58 55 62 63 62 60 55 38 30 29 27 35 38 37 38 39 45 49 50 48 46 46
31 30 35 37 42 40 38 36 36 39 42 46 48 49 51 51 48 46 45 49 50 53 56 55 55 57 61 57 56 58 52 52 43 35 37 42 44 46 51 53 50 54 55 52
38 37 39 42 44 41 41 36 40 45 47 48 47 48 46 48 49 49 52 52 49 49 50 53 54 54 57 57 48 49 55 56 57 55 47 41 40 38 40 40 37 36 32 36
44 44 42 47 43 42 42 42 46 47 46 43 45 44 43 46 49 49 50 51 54 55 52 50 48 50 51 50 51 46 44 46 50 54 56 54 52 48 48 45 43 48 47 47

GFSCGP_700_spd_009.txt.gz
Wind_Speed
35 36 38 37 35 37 39 41 47 48 44 51 56 60 58 52 51 53 53 51 49 44 36 34 32 31 33 35 38 41 40 40 39 38 39 40 38 40 42 39 37 35 33 32
39 46 41 36 37 36 37 42 47 53 48 49 55 63 57 55 54 49 47 42 40 37 34 28 30 33 34 35 41 42 39 39 39 38 37 39 35 34 38 39 38 35 33 32
46 47 40 39 41 41 49 47 52 54 48 47 52 64 45 40 40 42 37 34 27 26 20 18 24 28 27 27 29 30 30 32 34 36 38 37 36 38 39 40 38 34 30 27
38 40 37 34 36 33 45 35 42 42 41 30 26 33 36 44 22 41 14 5 15 24 20 18 18 19 25 24 25 28 29 27 33 36 37 38 36 34 32 32 30 28 27 28
38 33 32 30 33 26 38 29 31 36 37 38 29 17 25 26 31 12 9 16 30 22 32 31 28 26 30 29 29 28 28 28 31 33 35 35 32 29 30 30 30 32 29 26
33 30 31 30 29 27 28 29 27 31 31 14 26 24 49 20 9 9 17 29 26 28 27 27 26 30 29 28 29 29 30 30 30 32 32 26 26 27 29 29 34 34 29 25
33 37 39 35 31 29 28 28 8 4 4 12 8 17 53 35 39 34 22 29 33 19 22 30 34 33 31 27 28 30 25 26 23 24 22 21 21 24 27 29 34 33 29 26
33 39 28 19 18 21 21 21 16 7 8 20 27 22 48 45 42 35 36 34 17 19 26 34 27 30 29 24 27 26 24 22 19 20 17 15 18 25 27 31 37 35 29 26
33 43 30 27 26 27 27 30 39 38 39 9 33 47 58 56 48 34 11 21 21 32 26 25 22 21 24 24 25 21 19 18 16 16 18 23 27 32 35 38 38 35 31 28
31 33 33 29 27 30 29 30 17 13 4 11 15 39 40 39 38 38 46 36 32 28 24 31 33 31 18 18 17 14 11 12 15 17 23 28 32 37 41 43 41 37 35 31
25 20 38 26 37 41 40 37 37 31 27 15 17 18 56 61 47 42 43 40 38 40 17 22 20 13 8 7 10 12 18 23 27 31 29 31 32 34 40 45 44 42 41 39
33 28 23 45 49 38 33 31 30 16 18 32 37 31 49 53 63 63 61 47 48 47 46 39 30 43 42 44 41 40 39 43 39 40 44 40 37 37 36 46 50 47 48 46
25 24 28 25 34 34 36 39 44 49 51 42 32 41 53 60 64 61 57 49 45 45 44 39 44 48 44 43 49 54 55 53 47 43 41 40 45 41 39 40 46 50 53 54
37 42 40 26 27 43 48 48 46 43 34 45 45 50 44 54 61 64 54 42 42 36 38 43 46 53 51 51 49 53 49 50 51 43 38 39 45 42 44 41 45 47 47 50
39 41 41 47 44 40 40 45 52 58 55 49 50 47 49 59 58 53 59 55 49 52 48 50 45 53 52 48 50 49 50 52 49 42 40 42 47 49 46 49 50 54 54 53
29 43 45 46 55 49 40 47 53 41 43 56 57 60 51 51 49 53 54 56 55 54 50 50 44 47 47 51 53 54 55 57 57 53 51 54 53 48 52 51 50 55 61 60
41 33 29 37 40 35 31 52 44 42 42 46 33 23 31 34 40 37 46 51 53 45 43 42 44 45 49 53 59 60 56 54 55 58 60 63 58 55 50 50 53 55 57 56
48 48 43 42 45 22 49 39 33 25 26 23 18 18 18 19 18 24 24 33 39 43 38 39 39 39 45 50 56 60 53 50 54 56 59 57 63 53 53 55 57 56 58 57
38 35 21 11 21 29 41 33 33 33 25 28 23 19 21 25 26 22 23 31 36 37 38 41 38 36 32 35 38 45 42 46 48 43 50 53 57 54 52 50 51 54 58 57
13 18 19 19 6 5 20 28 32 28 23 24 29 40 42 48 49 41 41 47 52 53 53 51 50 46 48 38 35 36 34 33 38 36 38 42 47 48 45 44 47 51 54 55
20 16 26 30 14 17 27 28 28 14 20 33 45 41 39 36 40 47 48 50 52 55 56 57 57 58 53 51 53 46 41 33 34 37 40 38 41 44 44 45 46 45 46 48
15 9 10 12 10 14 24 23 31 39 39 35 35 33 34 41 46 47 49 48 47 48 47 50 55 53 52 50 50 54 53 54 47 38 36 37 39 42 45 45 45 45 46 49
23 30 31 25 23 28 36 41 39 42 45 43 38 40 43 46 47 47 47 48 48 49 49 49 52 55 55 51 49 51 51 58 57 48 48 46 38 44 42 44 47 47 45 48
38 33 34 34 41 42 41 38 41 38 39 41 43 47 47 47 46 45 45 45 46 43 43 47 49 51 54 51 48 46 48 46 47 50 49 47 48 46 35 37 36 35 39 46
40 34 38 43 49 45 41 41 39 40 43 43 46 47 47 46 44 47 47 48 49 52 55 56 54 53 53 52 49 48 48 48 45 44 47 51 46 51 57 49 43 37 32 32
44 47 46 49 44 46 44 42 43 43 45 47 46 46 45 47 49 47 50 52 53 55 60 64 65 66 63 59 56 52 51 50 50 48 44 45 44 45 47 49 54 49 49 45

GFSCGP_700_spd_012.txt.gz
Wind_Speed
36 38 38 38 35 36 37 40 45 46 41 47 53 57 53 47 44 44 43 42 38 33 27 28 29 26 29 31 36 39 40 40 43 44 44 43 41 41 41 42 43 43 41 39
39 44 39 35 33 33 36 40 46 52 43 45 51 58 50 45 45 39 34 30 29 27 15 11 13 19 22 28 35 40 41 42 45 44 40 40 40 41 41 39 41 43 42 40
42 41 37 36 35 39 45 44 50 51 42 42 48 54 29 38 39 34 21 24 11 9 15 8 9 13 18 22 26 32 36 38 34 34 37 38 40 43 44 43 42 42 43 41
37 36 33 29 29 25 38 28 36 39 37 24 25 25 37 33 12 32 13 2 8 17 18 20 26 30 23 25 25 25 26 27 24 28 34 37 39 41 39 38 37 38 40 40
29 29 27 28 29 23 30 23 26 31 33 36 15 14 22 27 27 2 7 9 10 31 25 42 39 30 30 31 33 34 29 25 24 26 28 32 37 40 39 39 37 38 38 38
31 28 29 24 23 25 27 28 27 29 30 13 20 21 21 9 8 6 7 14 22 18 42 29 27 31 29 30 34 31 23 18 24 28 33 34 36 36 37 38 39 38 37 39
26 26 33 32 32 32 31 28 6 4 4 10 6 15 33 29 34 29 20 33 38 35 23 25 24 28 36 39 34 28 23 19 21 27 30 31 32 34 34 34 35 35 38 39
28 32 28 23 27 27 24 22 14 7 6 16 24 20 44 43 45 52 43 37 31 12 25 32 34 27 25 19 18 19 17 18 22 27 28 27 24 24 24 25 29 32 37 40
23 39 30 28 25 27 29 28 33 32 33 15 32 43 56 53 25 27 22 7 12 26 25 16 21 20 15 10 11 13 16 18 21 25 23 20 15 16 19 24 31 37 41 42
28 32 43 28 27 38 31 27 14 10 3 6 14 27 32 59 49 46 45 39 38 38 34 37 43 37 28 17 8 6 3 4 10 9 11 14 17 21 25 29 33 38 43 47
29 32 42 17 23 30 26 23 27 30 26 9 12 18 51 50 44 50 50 45 44 41 47 50 43 45 39 36 30 26 25 21 21 19 21 24 25 29 31 30 34 37 42 49
34 28 25 43 39 38 36 40 37 29 15 30 28 27 47 48 51 56 49 40 36 39 39 40 46 45 45 40 41 43 42 41 42 44 43 42 33 36 38 35 36 40 43 48
21 17 11 8 19 21 27 26 28 32 32 34 21 24 45 43 48 50 50 37 42 40 34 35 36 40 42 45 52 49 52 52 48 47 45 43 43 46 42 36 39 41 45 47
33 35 31 23 31 40 34 35 38 35 22 28 29 33 39 41 41 43 46 50 55 57 53 49 46 46 49 47 50 62 58 56 56 53 51 51 47 44 44 40 43 42 40 43
36 39 40 42 40 35 35 35 37 44 46 35 41 51 39 48 54 53 60 63 67 61 58 56 54 52 50 50 49 54 58 55 53 53 52 51 53 54 47 45 45 44 42 44
27 27 27 40 40 46 46 46 56 53 52 41 37 33 34 40 44 41 39 44 54 56 44 38 38 43 42 46 48 47 53 51 48 50 51 54 54 54 58 55 52 51 46 46
41 33 32 36 40 32 29 47 41 42 47 42 42 41 34 25 25 25 27 27 32 35 39 44 51 40 42 42 44 46 50 55 54 54 56 57 59 58 56 58 59 62 61 56
38 41 37 35 36 22 40 35 27 27 24 25 25 22 24 29 31 28 32 33 36 40 43 44 47 50 46 43 41 42 43 45 55 55 57 62 57 54 55 58 57 60 62 67
49 46 27 18 25 30 38 34 32 33 29 29 29 26 27 30 37 38 40 41 44 47 47 48 49 50 52 52 54 53 47 46 42 47 49 52 57 53 56 56 58 61 63 69
20 19 25 17 8 6 15 21 21 28 25 26 20 31 38 40 42 47 44 43 45 45 45 49 52 51 48 47 50 50 48 53 54 50 49 48 44 44 42 45 53 59 59 63
25 23 26 33 17 18 24 28 31 13 15 20 35 40 40 38 39 42 45 46 45 45 46 48 49 50 51 51 51 50 51 47 48 49 54 58 59 52 45 45 45 50 52 54
18 14 20 12 10 12 18 19 21 29 43 43 42 42 38 39 41 44 45 48 48 48 48 46 47 48 48 47 49 50 48 49 48 49 51 50 51 59 60 48 44 43 46 48
23 30 23 19 25 33 41 44 39 37 42 39 41 40 41 42 45 47 49 51 50 49 46 46 48 51 52 54 54 56 54 53 51 50 47 49 49 48 48 56 52 48 43 42
42 38 40 42 46 39 37 38 38 34 37 38 39 43 44 46 47 49 49 50 52 52 51 51 53 56 58 56 59 60 62 63 60 58 55 51 51 48 49 48 49 55 53 47
41 37 40 43 47 43 42 36 35 38 38 41 44 45 46 47 47 48 51 53 55 53 51 55 58 61 64 65 67 67 67 67 67 66 62 61 54 53 50 48 48 49 52 49
47 50 43 42 40 42 42 38 39 42 45 45 43 44 44 46 50 52 54 53 54 55 57 60 64 67 70 72 76 77 74 71 71 71 66 62 60 54 51 52 48 48 49 51

GFSCGP_700_spd_015.txt.gz
Wind_Speed
32 34 33 32 31 32 35 39 42 42 39 44 49 53 48 44 41 37 35 33 27 20 18 14 17 23 26 28 30 34 40 40 43 43 43 44 43 42 42 41 39 41 44 45
37 40 34 34 31 31 34 37 42 47 40 41 46 51 46 38 35 34 31 20 15 9 7 6 7 6 10 15 22 29 36 38 38 42 43 43 43 43 41 42 42 43 44 43
41 37 33 36 36 36 41 40 41 41 36 39 44 41 19 32 31 13 17 17 3 2 2 7 14 17 20 25 28 28 29 33 36 36 40 41 39 39 39 40 42 44 44 44
36 37 32 28 28 23 33 24 30 31 30 17 24 16 32 17 16 14 10 8 9 14 16 23 29 25 42 36 32 33 33 29 28 28 27 28 30 30 29 33 37 42 43 43
24 22 24 27 29 21 27 19 24 30 32 33 19 17 19 23 2 13 14 4 18 23 27 30 30 45 29 27 26 25 25 34 31 27 27 29 29 29 30 33 35 39 42 43
25 28 31 28 19 16 21 25 27 27 28 12 20 17 5 4 11 10 9 10 29 33 32 29 26 27 30 26 29 34 29 29 28 27 24 25 30 32 33 34 35 38 42 43
34 29 28 26 31 27 22 20 7 5 2 8 7 16 24 8 17 26 21 29 30 20 17 26 24 29 28 28 33 30 26 25 26 28 28 28 29 30 31 33 34 36 39 42
30 38 28 30 29 20 22 25 16 6 6 14 26 21 32 27 26 29 20 7 9 18 22 26 25 21 19 22 25 32 25 25 27 27 30 28 27 26 25 27 31 33 36 39
26 40 34 30 28 23 25 32 39 36 33 13 28 39 55 41 10 3 16 21 20 24 34 37 34 34 36 34 29 24 17 15 19 23 24 23 23 24 23 23 25 28 31 34
16 25 29 25 36 39 34 32 15 13 3 9 13 19 36 28 26 30 27 34 34 34 36 42 46 45 46 49 46 40 34 30 26 23 20 17 16 18 19 19 18 19 23 28
36 33 41 21 25 28 28 32 33 30 22 5 7 15 41 27 36 41 38 38 35 37 39 37 33 35 36 37 42 40 41 39 38 37 37 34 32 30 28 26 25 23 24 24
31 26 28 42 41 36 28 33 31 19 11 18 18 18 43 30 25 34 42 37 41 43 42 40 37 30 29 31 36 40 44 47 48 48 50 52 47 42 41 36 35 36 37 36
23 16 17 17 31 28 26 36 38 36 32 27 18 14 20 23 37 35 45 48 56 56 51 48 47 48 51 50 51 48 55 51 51 56 55 53 50 48 46 42 41 41 42 44
39 39 31 29 28 22 27 30 34 28 21 28 27 30 31 33 46 53 53 57 53 52 53 52 50 46 44 45 46 48 51 59 59 57 56 58 58 53 44 45 42 42 40 45
32 33 35 37 40 40 39 40 41 39 41 30 37 42 51 50 49 49 49 48 49 49 49 45 42 39 36 31 29 33 41 46 48 56 61 59 58 55 54 48 47 45 44 45
28 29 28 31 34 34 43 52 55 56 56 47 44 38 41 35 37 37 42 45 43 41 39 40 43 46 48 50 50 45 40 45 51 55 57 56 50 53 55 55 54 50 50 49
37 41 37 40 41 34 27 47 42 43 48 47 43 38 34 36 35 36 37 34 33 34 40 46 48 49 51 53 54 53 51 46 44 45 47 52 56 59 60 62 62 60 55 53
34 36 33 29 29 20 44 40 31 32 32 31 24 19 19 20 23 26 31 34 37 39 44 47 51 56 57 55 54 57 54 53 52 53 52 49 52 52 55 56 53 53 54 56
49 49 33 27 34 33 42 39 40 40 36 26 19 18 19 23 31 35 34 37 39 43 45 47 49 51 54 53 53 52 49 47 44 47 51 52 53 54 52 48 50 52 54 56
17 21 29 23 9 6 15 18 18 17 26 21 11 22 30 34 38 39 39 41 42 43 45 46 47 47 49 51 52 52 52 51 49 48 46 46 45 47 51 54 51 50 50 51
22 22 28 31 21 18 26 26 24 14 15 11 30 36 39 39 37 39 39 41 43 44 46 47 48 50 51 53 56 57 58 57 56 54 51 48 48 49 48 49 50 50 52 50
17 13 15 11 13 14 22 20 10 20 34 41 39 35 38 36 37 39 41 44 45 46 47 48 51 53 53 54 57 59 62 62 62 61 61 60 57 52 51 52 53 51 50 51
23 26 25 26 20 23 29 37 42 36 32 35 31 33 36 37 40 44 45 44 46 48 50 51 54 56 57 56 56 60 61 63 66 69 69 66 65 62 60 57 55 55 55 52
35 34 40 41 45 41 36 33 28 27 27 29 32 36 38 42 44 44 45 47 49 50 53 54 54 55 57 57 59 63 66 69 72 74 76 76 75 71 67 63 58 56 55 56
42 41 43 46 43 38 35 29 32 34 32 33 35 38 40 41 42 44 47 48 50 52 53 55 58 62 66 68 70 72 75 78 80 81 81 82 83 80 75 68 62 58 57 56
44 44 42 47 39 35 40 36 35 40 38 37 38 37 38 42 44 44 47 49 50 53 56 60 65 71 76 78 79 80 81 84 85 86 85 85 84 81 75 70 66 60 58 56

GFSCGP_700_spd_021.txt.gz
Wind_Speed
28 24 19 20 20 26 29 30 32 31 29 32 33 32 30 34 31 22 16 23 25 27 33 29 21 14 12 11 10 10 13 17 21 24 28 32 35 39 45 49 51 51 49 47
28 28 25 21 24 28 31 29 31 31 23 24 29 32 34 4 7 24 22 16 16 21 23 16 13 12 10 11 11 13 17 22 19 25 27 28 31 35 39 42 47 53 52 51
34 25 22 27 30 34 27 28 30 30 27 28 20 21 21 12 21 20 16 17 21 20 16 12 12 13 15 16 18 18 21 24 23 21 26 31 31 31 36 40 43 47 52 52
22 24 19 13 16 14 20 17 22 25 18 17 17 16 18 19 13 12 9 21 20 18 13 9 13 19 22 21 18 21 22 18 19 21 23 27 31 34 35 36 38 43 47 53
8 16 15 14 13 13 18 21 19 21 25 24 20 18 12 16 13 12 16 15 12 10 13 21 20 17 17 13 13 14 13 15 18 20 21 25 29 33 35 37 38 39 43 48
15 20 18 16 18 22 23 24 23 24 18 12 12 11 8 4 2 15 12 12 15 20 23 23 24 20 17 18 19 18 18 19 19 20 22 24 25 26 30 34 37 39 40 43
16 21 28 25 24 20 17 18 11 11 12 14 16 11 17 6 12 21 23 23 29 29 26 26 23 24 24 25 26 25 27 27 27 30 29 27 27 25 23 23 26 29 33 36
24 27 17 12 14 18 20 15 13 10 14 19 28 19 22 23 23 23 30 35 39 32 29 26 31 29 29 33 35 36 38 40 38 35 33 30 28 27 29 25 23 22 23 27
17 16 10 18 27 23 16 19 19 19 29 14 28 37 35 33 34 33 37 41 41 35 29 29 31 31 34 36 37 41 41 46 44 38 35 34 31 28 29 31 32 33 34 30
11 19 16 13 17 19 19 21 16 12 5 15 17 29 27 26 26 32 35 36 34 33 34 32 30 29 27 27 30 33 36 38 41 43 43 38 37 38 39 41 42 40 40 40
18 18 26 19 17 20 20 25 23 25 28 13 16 21 32 27 20 27 29 29 30 28 25 29 32 38 41 43 45 46 40 40 39 39 41 42 43 44 47 47 42 41 41 42
18 18 27 34 34 29 30 32 28 27 14 25 28 23 30 39 36 29 25 21 22 25 32 40 52 53 52 47 43 37 32 33 35 37 38 40 41 44 46 46 47 44 42 42
10 9 11 18 21 12 15 15 18 25 30 33 21 23 31 40 40 31 30 34 38 48 54 51 51 50 51 48 39 31 32 34 35 32 33 34 35 38 40 41 42 44 41 41
25 23 26 25 28 31 38 37 36 37 30 36 36 35 30 35 33 37 46 54 54 55 49 46 45 44 44 39 36 34 35 36 37 38 39 40 40 41 43 46 47 49 51 49
21 26 29 32 33 33 35 38 43 40 44 43 48 44 52 46 44 45 42 44 45 45 46 45 39 36 35 35 36 38 39 40 42 45 47 48 50 52 51 51 52 53 55 54
18 24 24 35 39 32 34 42 44 39 41 44 45 50 49 44 39 36 39 43 46 44 41 40 40 40 40 41 42 44 46 47 48 48 49 49 51 52 53 56 58 56 55 56
25 25 23 34 34 31 30 48 37 41 42 40 39 37 38 39 41 44 45 41 37 37 34 35 37 40 44 46 49 51 51 51 50 48 46 46 48 51 51 51 51 52 55 56
36 37 28 37 31 21 39 27 26 32 36 38 39 42 39 35 34 35 32 32 32 32 34 37 40 44 47 51 52 52 51 51 51 48 48 50 51 52 53 55 56 56 56 55
28 30 29 27 31 33 41 36 36 31 36 34 32 32 28 25 26 30 17 26 36 37 40 42 45 51 52 50 51 53 53 54 56 56 58 60 61 61 60 58 57 57 58 59
16 21 26 24 21 17 28 19 22 28 30 28 29 22 19 24 30 32 28 36 42 43 46 46 44 47 50 50 51 53 55 56 58 62 65 65 65 66 66 65 63 62 60 61
18 20 28 32 34 31 29 27 25 16 26 22 20 20 25 38 40 41 43 41 40 40 42 44 44 45 47 50 53 55 57 59 62 64 67 69 70 72 73 74 73 73 73 72
17 15 19 16 15 17 18 16 16 17 23 27 29 31 43 39 38 35 36 36 38 40 41 44 46 47 48 50 53 56 59 61 65 69 73 77 79 81 82 84 84 84 84 84
20 33 23 22 23 24 27 29 36 35 35 38 40 43 36 37 35 34 35 36 38 41 42 43 46 46 47 50 54 58 61 66 71 76 78 80 82 83 84 86 86 86 86 87
33 36 32 36 37 41 37 32 30 27 27 27 25 30 31 31 35 39 38 37 38 38 41 43 45 47 52 55 57 62 68 74 76 78 79 79 81 82 83 85 85 86 86 86
33 27 32 33 40 40 36 30 27 31 33 32 33 34 33 34 36 37 37 37 38 39 40 42 47 52 55 59 63 69 70 71 74 75 79 82 81 77 73 69 67 66 65 65
40 43 39 42 39 38 37 34 32 37 37 37 36 34 34 34 34 35 36 37 38 39 40 45 49 53 60 65 63 62 66 66 71 76 74 63 58 55 52 50 48 44 45 45

GFSCGP_700_spd_024.txt.gz
Wind_Speed
23 22 23 23 20 19 26 27 27 27 28 27 28 33 32 28 15 13 13 18 21 27 33 34 27 20 18 14 14 12 10 10 11 17 19 21 26 31 38 43 45 47 48 47
24 26 21 14 20 24 26 28 30 27 21 22 29 32 28 14 18 11 19 21 29 30 29 20 10 8 7 8 9 10 12 13 12 14 16 19 25 28 30 34 39 42 45 47
30 26 17 14 19 27 27 25 23 23 23 22 19 21 21 18 24 23 20 28 32 24 16 13 10 8 10 11 14 17 15 15 14 14 14 16 19 22 29 33 34 37 41 44
16 18 16 11 11 11 16 12 14 18 18 10 16 13 16 17 14 21 19 27 27 20 16 14 10 13 17 18 18 17 15 16 16 16 18 17 17 18 21 26 30 33 34 38
9 8 9 10 11 9 12 18 20 21 23 23 16 15 6 15 15 16 22 22 17 16 15 14 18 18 17 17 16 18 19 15 14 14 17 18 20 22 21 21 22 26 28 30
9 14 11 12 18 16 19 19 19 17 16 6 4 9 5 2 9 13 17 19 15 16 18 22 22 20 19 19 18 18 19 21 21 21 21 20 20 22 24 25 25 25 22 22
10 18 23 20 21 14 8 9 7 4 5 6 2 14 17 16 19 19 19 21 22 24 25 24 21 19 18 17 18 20 21 23 25 26 25 26 25 27 28 28 26 25 25 24
10 10 15 15 12 10 10 11 7 5 2 10 29 14 20 18 24 28 31 29 31 28 26 25 25 21 21 20 21 22 23 24 25 27 28 25 26 26 26 29 30 30 30 29
10 8 14 13 12 13 5 10 13 19 23 10 15 21 31 25 23 27 28 33 34 30 21 21 23 24 23 24 26 29 32 33 36 39 35 34 34 31 29 30 31 32 35 36
16 16 19 20 18 15 14 14 9 6 3 5 7 14 19 25 23 25 29 31 28 28 27 25 25 24 24 30 35 38 42 45 46 46 46 42 39 37 35 35 35 36 38 38
18 15 14 15 11 8 10 15 19 19 20 3 9 13 25 26 23 22 20 25 25 28 28 29 29 30 33 42 47 49 49 48 48 44 41 37 35 36 38 38 35 34 34 33
14 8 20 30 35 30 26 29 28 17 14 24 27 27 35 32 29 26 27 25 29 32 31 36 38 47 52 51 54 54 54 52 49 43 39 41 42 40 39 37 37 37 36 36
14 11 8 15 20 13 11 8 15 18 20 21 15 14 23 26 37 33 33 38 42 45 51 53 54 44 41 44 40 40 40 37 34 35 35 36 37 39 39 40 41 42 43 44
19 25 21 20 23 19 28 29 32 28 20 30 36 40 52 45 31 36 45 56 57 57 47 45 44 44 43 42 38 34 33 34 34 35 37 39 39 42 45 48 49 51 51 52
19 28 24 29 30 30 31 36 42 35 38 33 49 46 53 53 49 48 48 48 47 47 46 48 51 44 34 33 33 33 35 37 40 42 44 46 48 50 51 52 53 53 54 55
16 21 22 31 30 30 36 45 41 42 45 43 43 46 44 44 43 43 42 40 42 48 50 45 45 43 42 42 41 41 40 42 44 44 44 44 45 46 48 50 52 53 53 53
27 25 20 28 24 19 22 47 32 33 33 34 36 35 34 34 36 41 44 44 45 44 41 37 31 34 38 42 44 45 47 47 47 47 46 45 46 47 47 48 51 53 57 59
34 27 20 20 20 5 35 26 20 26 29 30 33 37 41 44 45 44 40 36 36 39 37 32 34 38 39 42 45 47 46 47 48 50 53 54 55 55 56 58 59 59 60 62
27 27 16 10 19 27 42 41 36 33 39 37 32 33 32 33 35 35 30 24 26 32 34 39 42 44 41 41 43 44 47 49 51 53 56 59 61 63 64 65 66 66 67 66
11 17 26 19 8 7 30 24 22 23 38 34 36 35 33 32 31 34 31 33 35 37 39 43 45 41 38 40 43 45 48 51 54 56 59 62 65 68 71 72 73 74 76 77
16 17 29 34 21 22 30 31 33 22 37 29 26 23 24 30 32 37 39 44 45 44 40 40 37 39 41 42 43 46 48 52 57 61 65 67 70 73 75 77 78 79 79 79
15 12 20 17 20 16 22 21 22 28 26 23 27 35 36 36 41 46 49 46 36 34 36 37 38 39 39 41 43 46 52 57 62 68 72 72 71 72 74 76 77 79 82 84
26 36 28 27 20 26 33 33 34 35 40 43 39 36 33 34 38 38 34 34 33 38 40 41 38 36 38 39 45 50 56 62 68 71 67 68 70 70 72 76 79 77 72 69
34 39 39 37 40 37 33 33 36 34 33 31 30 30 32 36 37 36 36 35 36 39 40 38 37 38 39 42 48 54 61 67 66 65 64 64 68 70 75 67 57 55 53 50
40 42 44 40 34 37 36 32 31 30 28 29 32 36 39 39 37 38 37 38 37 36 37 37 37 38 40 45 50 58 62 61 62 59 61 62 67 71 58 48 44 43 40 40
48 50 51 51 44 38 37 31 32 35 35 36 39 38 38 38 38 38 37 37 35 34 35 34 35 37 41 47 54 57 58 58 55 56 56 61 65 57 46 42 39 35 33 33

GFSCGP_700_spd_027.txt.gz
Wind_Speed
23 23 24 20 19 19 19 20 25 26 25 29 33 30 25 22 16 13 13 22 23 24 25 28 32 29 16 13 13 11 10 9 10 12 15 18 20 24 28 33 37 39 42 45
25 26 22 15 14 17 22 27 29 28 20 19 21 25 26 22 26 18 21 25 24 26 23 23 22 11 7 6 7 8 10 11 12 12 14 17 19 21 24 25 27 29 32 35
30 24 23 19 16 20 23 24 25 18 15 18 24 25 25 15 18 17 20 20 23 25 27 23 16 12 9 9 12 13 13 14 15 16 17 17 16 18 20 22 24 27 29 32
18 15 14 15 19 19 19 12 10 11 16 13 13 9 12 6 17 20 22 24 23 23 25 21 15 12 12 15 14 15 13 13 15 14 16 17 17 17 15 14 15 18 22 25
8 4 5 6 6 9 12 11 16 21 20 21 20 13 4 14 14 15 15 19 22 22 20 17 16 16 18 17 16 14 16 17 15 14 15 15 17 18 18 18 17 16 17 18
10 9 11 9 9 13 12 14 16 15 18 4 4 8 4 2 7 8 14 19 20 20 18 18 18 19 17 16 15 16 16 15 15 16 16 17 18 18 19 19 19 19 17 18
8 12 12 16 18 16 14 10 4 2 2 5 10 13 14 13 14 13 18 17 19 20 21 22 21 19 19 17 17 16 15 15 15 18 19 20 21 24 24 23 22 21 22 23
11 9 12 11 14 11 12 9 4 5 3 5 20 10 8 10 12 14 18 21 23 23 24 24 24 23 23 23 22 19 19 20 20 21 23 28 31 30 30 31 29 30 31 31
10 10 13 16 15 15 8 11 11 15 23 8 8 10 16 21 20 16 18 21 24 25 24 24 26 27 26 26 26 25 29 31 31 33 34 36 34 33 33 32 33 32 33 36
18 15 19 22 21 16 14 11 7 7 1 4 8 10 11 12 20 18 18 16 19 20 22 25 29 34 38 41 43 44 42 46 51 51 48 42 35 31 32 36 36 35 32 32
21 21 20 18 14 12 11 14 13 13 16 4 2 9 17 18 22 19 17 20 22 26 31 37 41 42 39 43 48 51 49 47 46 44 42 42 42 38 32 30 34 39 36 33
24 16 22 28 25 17 16 24 24 15 8 14 18 28 34 32 17 13 26 28 28 28 31 35 42 51 56 52 41 36 39 39 38 38 35 33 34 31 32 32 33 35 37 39
22 16 13 15 15 14 15 19 16 13 18 22 11 13 17 18 20 28 41 40 42 47 50 52 49 45 41 38 37 41 37 34 34 35 34 33 35 36 38 40 41 42 43 44
23 26 23 22 9 7 11 17 21 23 15 20 32 37 42 42 47 50 49 48 50 53 52 47 46 36 35 35 34 31 31 30 31 32 34 37 40 43 44 46 49 50 50 51
24 28 27 34 32 31 35 38 38 35 36 29 47 46 47 45 45 41 41 41 42 44 45 42 41 43 43 38 32 27 27 30 33 35 38 41 43 46 49 51 51 52 52 53
33 28 25 32 29 29 31 39 38 41 42 45 45 44 33 30 32 36 37 38 39 37 41 42 42 38 34 35 36 38 38 39 41 41 40 39 41 42 44 46 48 51 53 55
27 23 20 27 24 22 23 44 37 32 32 31 30 27 22 26 29 34 35 39 41 41 41 39 34 31 31 36 38 39 39 39 40 41 42 44 45 47 49 51 53 54 56 57
30 28 23 17 13 3 36 32 28 25 22 24 24 28 33 39 40 37 35 36 36 36 37 33 31 34 37 38 38 37 37 38 40 42 43 45 48 52 56 59 61 64 66 67
35 34 19 12 19 21 28 27 25 28 32 36 37 36 35 36 36 37 35 33 31 30 28 32 36 39 40 40 38 37 39 40 40 43 44 47 52 58 63 67 70 69 69 68
29 32 29 21 9 10 23 23 16 14 31 38 36 33 32 29 26 27 25 30 34 35 39 43 44 43 41 36 38 40 41 41 42 43 48 54 60 65 69 68 66 66 67 68
23 23 35 39 20 18 28 29 26 15 32 26 24 24 26 27 28 34 39 40 41 43 45 46 40 34 35 38 39 39 40 42 43 47 53 59 65 66 64 64 64 66 68 70
23 18 28 24 14 16 24 18 21 28 28 27 26 27 30 36 43 43 39 39 37 37 37 34 34 36 38 40 39 39 41 42 45 51 57 63 63 61 60 62 62 65 71 71
22 34 25 24 21 22 21 26 33 28 29 30 33 36 38 40 39 36 33 35 36 37 39 39 39 39 40 38 38 40 40 42 48 53 59 61 57 56 57 60 64 70 66 53
33 35 37 39 44 41 38 37 33 29 32 29 31 33 33 32 31 34 37 36 36 37 38 40 38 40 37 37 37 38 40 44 49 56 58 55 53 53 55 60 67 67 51 44
38 36 42 42 40 41 41 36 33 30 29 29 30 31 32 35 37 37 40 39 39 37 40 40 41 39 36 36 35 37 41 46 50 54 55 50 50 50 54 59 64 54 40 37
38 44 44 47 42 37 32 27 26 32 33 32 35 34 33 36 40 43 39 40 38 37 37 38 36 36 36 35 34 37 41 45 50 54 51 47 48 49 53 58 62 41 36 32

GFSCGP_700_spd_030.txt.gz
Wind_Speed
20 21 23 20 19 18 21 22 23 23 19 28 30 29 18 13 17 17 22 23 25 26 23 22 22 24 21 13 10 10 8 9 10 10 11 13 15 19 24 30 36 39 40 40
26 27 23 20 22 23 21 22 23 24 21 22 19 20 20 22 19 23 25 24 26 24 20 18 17 17 12 9 7 7 9 10 10 11 12 14 16 18 19 22 25 28 30 31
31 26 23 20 20 21 20 23 22 23 16 15 23 26 16 18 18 19 18 18 19 17 19 19 17 13 13 12 11 12 10 9 9 10 12 14 14 15 17 19 21 22 25 28
19 18 21 22 23 21 25 17 14 12 11 10 15 8 12 19 13 16 18 20 21 23 19 18 18 16 15 14 15 13 13 13 12 11 11 12 12 13 14 15 17 20 20 21
8 5 7 11 7 8 8 9 11 15 19 21 21 13 5 7 17 18 17 18 20 19 18 18 18 18 18 18 16 15 16 17 17 15 14 14 13 14 16 17 18 19 20 22
12 10 12 10 11 11 11 13 16 20 22 6 18 16 7 11 3 8 10 14 18 20 19 20 20 21 22 22 21 19 19 20 19 19 18 15 13 14 16 17 17 19 21 23
13 17 14 14 16 17 17 11 3 3 2 6 15 4 14 13 11 9 13 18 22 20 20 22 24 25 25 25 24 24 20 20 20 19 19 20 18 17 18 20 21 22 24 26
13 10 18 20 23 17 16 20 9 6 3 4 8 8 10 12 8 8 10 14 16 19 22 24 26 26 26 24 22 26 30 35 37 37 33 32 31 32 37 36 33 30 31 32
12 12 16 19 16 17 13 20 21 16 14 5 9 14 15 13 14 14 6 10 14 18 20 21 21 23 24 25 31 38 42 44 44 44 47 48 44 46 47 41 41 43 44 40
19 13 14 16 17 18 21 14 10 10 2 5 7 15 16 9 11 5 8 9 13 16 17 19 23 25 32 37 37 38 42 47 49 49 50 47 44 42 38 34 34 34 36 38
26 23 16 19 24 26 24 27 18 16 15 5 2 10 9 12 8 14 16 19 21 21 25 29 33 34 36 42 48 50 49 48 44 43 43 37 35 35 35 34 33 34 35 37
25 16 20 26 22 22 27 27 25 19 9 15 16 28 22 24 23 16 18 19 24 31 38 43 46 47 46 43 41 36 29 32 39 43 41 38 35 35 35 35 37 38 38 39
28 20 15 13 20 26 27 30 30 28 27 30 11 13 19 19 17 15 24 33 41 46 48 46 44 43 42 40 33 33 36 35 33 31 31 33 35 37 39 42 44 46 47 47
30 33 28 23 13 9 24 34 23 19 14 16 32 27 27 23 27 40 42 43 44 44 42 40 40 40 36 33 35 34 32 30 29 28 29 31 33 36 39 42 45 48 50 53
30 32 32 34 34 28 30 31 27 28 30 25 44 38 44 41 42 44 44 39 39 36 36 37 36 35 37 36 33 28 25 26 29 31 33 36 39 40 41 41 41 43 45 48
31 26 26 29 28 31 36 43 41 42 43 42 43 46 41 39 36 36 38 37 35 34 35 37 38 36 34 32 29 28 30 33 35 36 37 36 36 36 38 40 41 44 47 51
31 31 28 31 27 23 27 42 41 42 41 40 37 35 25 29 31 30 30 33 37 38 34 32 30 29 28 26 29 32 33 35 35 35 36 37 38 39 40 42 46 51 56 62
31 30 27 19 17 3 30 36 33 34 34 30 28 25 25 25 30 37 36 34 32 32 32 30 30 29 29 30 33 34 34 33 33 35 36 37 38 40 42 48 53 59 64 68
35 31 20 13 23 28 35 33 30 23 29 29 25 23 27 33 35 37 33 34 31 28 25 27 30 32 35 38 37 35 33 35 37 38 38 39 41 43 48 53 59 65 67 62
40 37 32 24 8 10 36 27 21 24 29 31 27 30 27 29 30 29 23 25 26 29 33 39 40 39 37 33 32 32 36 38 39 38 38 40 41 45 51 58 65 63 58 58
23 30 38 40 23 21 31 27 27 18 30 26 26 30 24 26 26 25 29 32 36 40 41 34 33 32 32 34 35 37 38 40 38 39 39 38 42 47 55 62 61 56 55 56
28 21 26 24 14 15 36 29 33 35 28 27 32 29 28 28 28 32 36 41 40 35 32 32 33 33 33 36 38 38 40 40 39 39 39 41 45 50 56 59 52 52 55 59
29 38 26 24 19 21 19 15 20 24 31 36 32 29 29 31 35 37 39 38 36 32 34 35 35 35 36 38 39 41 42 39 39 39 39 43 45 50 55 53 50 52 55 59
29 29 31 35 38 36 36 35 37 40 37 33 32 27 30 34 36 37 37 35 34 37 37 37 37 35 37 40 40 42 40 39 39 38 40 43 46 51 52 49 48 52 54 59
31 32 41 38 37 36 38 38 33 28 26 26 25 28 32 32 35 34 35 35 36 41 42 39 38 37 38 39 40 40 40 40 37 38 41 43 46 50 52 48 47 51 51 56
38 42 38 36 29 33 34 29 26 25 28 30 29 33 35 34 35 37 39 39 41 41 38 38 36 37 38 38 40 41 43 38 36 38 40 43 46 50 51 48 47 43 47 49

GFSCGP_700_spd_033.txt.gz
Wind_Speed
20 21 22 18 17 18 21 22 23 24 21 25 25 27 14 7 14 20 22 23 25 26 23 21 19 18 17 14 9 7 6 5 6 9 10 11 12 13 15 18 22 26 30 35
27 30 23 22 21 22 24 25 27 24 19 21 24 18 14 20 18 17 22 26 25 18 16 14 13 14 14 11 10 9 9 9 9 8 8 9 11 13 14 15 17 19 22 25
33 28 24 22 22 25 26 27 24 22 19 19 18 22 18 18 17 25 19 18 17 14 14 13 13 12 10 11 12 12 12 10 11 12 13 13 13 13 13 14 16 16 16 18
25 25 27 27 29 25 25 22 22 20 15 9 8 7 12 21 25 19 17 15 14 15 15 14 14 14 14 15 15 16 15 15 15 15 16 18 17 17 16 17 18 19 20 19
20 12 13 23 24 21 20 12 9 12 14 18 20 15 10 16 19 17 17 16 14 15 17 16 16 17 18 20 19 21 21 19 19 17 18 20 21 20 20 19 19 19 21 22
20 14 12 9 11 14 11 11 11 15 17 6 19 21 5 15 16 16 15 13 13 17 18 19 18 19 19 21 22 23 19 16 15 16 18 19 23 25 24 23 23 22 22 22
16 20 17 16 16 16 18 12 3 4 2 6 6 11 21 12 16 11 9 11 15 19 21 20 19 19 21 23 22 20 17 18 23 27 30 34 37 38 37 37 37 36 32 32
14 8 21 22 23 19 22 22 9 7 3 4 9 10 9 21 19 19 17 17 17 15 16 18 18 20 21 22 23 23 24 28 32 38 44 46 43 41 41 41 41 41 44 45
14 13 14 20 21 25 17 24 24 17 11 4 11 17 16 16 18 21 17 15 14 14 15 15 17 19 20 22 25 28 33 40 46 49 50 50 49 47 45 42 38 33 35 37
16 10 16 18 22 23 27 15 10 14 2 5 7 13 17 9 18 22 18 14 15 15 16 17 19 21 24 28 34 39 45 49 50 49 46 44 41 41 42 42 39 37 36 35
26 21 12 18 21 27 25 26 18 17 22 6 2 10 12 11 16 18 15 15 17 18 19 20 22 26 34 39 44 47 48 46 43 41 40 40 43 43 42 39 39 39 37 37
20 14 21 28 26 27 31 31 31 25 13 17 16 32 16 12 14 14 19 23 22 20 24 29 36 41 41 38 37 37 37 33 32 35 36 36 33 31 31 33 36 38 39 41
24 17 15 13 21 26 32 36 37 40 37 29 14 16 18 17 17 19 22 25 24 30 36 38 37 35 34 34 36 35 32 33 35 34 33 32 31 31 31 32 35 38 40 42
27 31 28 28 17 11 26 39 36 36 26 27 40 37 33 31 27 26 26 31 38 41 39 34 35 35 35 36 35 34 34 33 32 31 30 30 30 33 35 37 39 39 39 40
31 36 35 40 40 33 31 30 31 35 43 36 38 34 37 32 31 38 43 41 41 34 33 37 35 35 36 37 36 34 32 32 31 30 31 32 33 35 36 36 36 37 39 41
32 36 33 36 36 34 38 42 35 31 31 35 36 44 42 46 45 40 41 36 34 39 38 37 37 37 37 34 33 32 31 30 31 31 33 35 35 35 35 36 37 38 40 42
30 34 28 27 30 28 29 46 44 44 48 46 47 50 43 39 37 35 31 37 40 40 41 41 38 33 33 33 29 28 28 30 33 35 34 33 34 36 37 37 37 40 42 45
31 32 31 20 19 7 30 35 37 35 34 34 33 33 29 29 31 34 38 38 39 41 39 38 36 31 26 26 29 32 33 35 33 32 32 34 36 36 36 36 38 40 44 50
38 33 26 14 22 29 34 30 30 25 36 37 35 27 28 30 33 39 35 37 37 35 32 30 28 28 31 35 37 36 34 31 30 32 34 35 35 36 37 39 39 43 49 54
35 34 32 19 8 9 34 33 27 27 36 32 28 23 24 29 34 40 31 31 31 30 31 32 31 35 39 38 33 32 31 30 31 34 35 35 36 37 38 39 42 46 51 57
31 35 35 37 22 27 37 36 35 18 31 26 23 25 27 31 34 37 32 29 27 29 32 36 39 38 33 33 33 33 32 32 34 34 36 36 36 37 38 40 43 47 53 59
28 21 30 27 18 18 36 31 32 33 27 26 24 31 34 36 41 33 30 31 32 35 36 38 36 33 32 33 34 33 33 34 36 37 38 37 37 37 38 40 43 48 53 58
31 38 29 29 24 24 15 12 15 21 27 35 33 33 38 38 37 33 31 35 37 37 37 34 33 34 35 35 34 33 34 36 38 38 38 37 38 38 39 41 43 47 52 56
31 34 38 38 38 34 26 25 30 33 33 31 33 39 37 39 38 32 32 36 37 35 33 33 35 37 38 38 34 34 36 38 39 38 37 39 40 38 40 42 44 47 52 54
29 32 38 37 36 32 32 27 24 24 27 32 35 36 35 33 35 36 36 37 36 35 38 38 38 40 40 36 35 36 38 38 38 39 41 42 42 38 40 42 45 49 52 53
40 44 41 40 35 28 23 23 27 30 30 30 30 33 32 33 36 38 40 39 36 39 39 39 40 40 38 36 37 39 39 37 36 40 40 40 38 39 41 43 45 48 51 50

GFSCGP_700_spd_036.txt.gz
Wind_Speed
23 25 26 20 13 13 16 20 22 22 21 24 25 26 21 24 22 16 18 20 21 21 22 20 13 11 10 9 5 6 8 8 8 8 8 9 9 11 14 16 18 19 19 21
26 30 20 19 21 22 22 24 27 25 23 25 23 26 21 17 17 19 21 21 26 23 17 12 11 10 10 8 7 7 8 9 10 10 9 9 10 13 15 15 14 15 17 19
32 25 18 19 22 25 27 28 28 25 22 23 24 25 17 19 20 17 18 25 22 16 14 13 11 11 9 9 9 10 11 10 11 13 13 14 14 15 16 17 18 19 18 17
29 31 32 32 34 31 29 27 22 20 18 9 7 6 11 16 19 23 24 24 17 15 14 14 13 12 10 10 11 13 13 12 13 15 15 14 15 13 14 17 19 22 26 26
31 25 20 24 29 27 24 22 18 15 14 17 17 13 13 17 21 23 25 20 17 16 16 14 13 13 12 12 13 13 13 13 11 13 15 15 18 17 18 21 24 25 28 30
34 27 19 20 15 17 19 14 11 10 12 6 22 21 6 13 11 19 21 19 20 17 17 15 17 16 15 15 15 15 15 13 14 15 17 18 19 22 24 28 32 34 35 36
26 27 24 18 15 15 22 15 3 2 2 6 6 12 25 12 12 16 19 18 19 19 17 17 18 17 18 17 17 18 19 22 24 26 28 31 33 36 39 40 38 36 35 37
20 10 29 24 25 17 25 22 8 7 4 4 5 10 7 12 17 18 19 20 21 19 18 18 16 16 17 18 19 20 24 28 31 34 37 40 43 45 47 48 47 45 42 38
17 13 16 18 26 23 20 28 25 12 10 4 10 16 19 16 16 22 26 26 21 19 18 17 16 17 17 20 22 26 29 31 35 39 43 47 49 49 49 49 46 45 44 39
14 7 18 27 23 26 25 18 11 12 1 5 6 12 17 9 13 23 28 25 23 22 19 17 16 19 21 24 26 29 33 37 41 45 47 47 46 44 44 44 44 43 43 40
26 19 13 22 25 28 27 27 18 15 13 5 2 7 7 8 10 14 20 23 22 21 19 19 20 23 24 28 34 38 42 41 40 41 41 41 41 42 41 41 41 38 36 35
35 17 19 26 23 26 27 31 33 25 10 13 7 26 20 26 17 15 18 21 21 22 23 22 23 27 33 37 38 37 39 40 39 38 37 37 36 34 34 33 32 32 33 37
32 21 14 7 17 24 30 36 36 36 31 32 11 18 18 16 11 14 22 26 29 29 28 28 30 37 37 34 36 38 36 35 35 35 35 35 33 33 33 32 34 36 37 38
27 30 24 21 13 9 29 40 39 39 33 27 40 42 40 28 19 22 26 30 30 30 31 35 43 38 33 35 35 34 35 35 35 35 34 34 32 32 33 34 36 37 37 37
33 30 28 29 30 31 32 35 35 37 37 38 43 40 38 36 36 34 28 28 31 39 45 42 36 32 33 35 35 36 35 34 33 33 33 32 33 34 37 38 37 37 37 39
31 26 28 31 33 35 38 45 41 38 36 34 35 44 42 40 38 38 34 40 46 42 38 32 33 33 35 35 34 33 32 33 33 32 32 35 37 38 37 36 36 38 38 38
32 30 26 23 31 31 28 49 51 48 45 44 44 48 39 39 42 41 39 37 36 32 31 35 35 38 37 35 34 33 30 30 31 35 37 37 36 33 34 37 37 37 36 37
25 25 27 14 18 8 32 40 33 31 33 36 36 35 32 30 29 30 34 33 31 33 37 38 39 39 35 32 30 27 28 33 36 36 35 32 31 33 36 37 37 35 36 37
27 25 19 13 22 24 24 27 26 21 28 24 26 33 32 35 33 28 28 33 34 36 36 39 39 37 33 31 29 31 35 35 32 32 31 31 33 36 36 36 35 35 37 38
31 30 29 18 6 8 27 32 36 34 38 34 27 24 23 24 28 28 27 32 34 38 39 36 33 32 30 30 33 35 31 30 31 31 31 32 35 35 35 36 34 36 38 39
29 29 31 30 21 24 33 35 28 17 28 26 17 16 22 24 23 25 29 36 37 41 37 32 32 32 32 32 33 30 29 30 31 32 32 33 36 37 37 36 36 37 38 40
25 18 25 27 17 17 29 29 32 29 20 21 20 20 20 26 32 35 37 39 41 38 34 31 33 35 35 33 32 30 30 32 33 32 33 35 38 39 40 35 38 37 39 40
27 34 27 23 19 21 16 12 11 12 15 22 28 30 33 34 35 36 40 42 37 35 32 35 36 36 35 34 34 33 33 35 34 33 36 37 39 41 39 37 39 39 39 41
30 35 37 37 40 36 27 17 23 25 27 31 34 33 31 34 36 41 44 40 35 33 32 33 35 36 37 35 34 35 38 37 34 36 38 39 39 40 40 40 40 41 39 42
30 34 39 40 38 28 27 27 25 28 31 32 28 29 31 35 40 43 38 36 31 33 33 31 34 37 38 35 35 38 38 37 36 38 39 39 41 40 42 42 39 39 41 44
40 43 42 31 22 23 24 24 21 23 27 29 29 30 31 34 37 38 38 39 40 39 38 41 39 39 38 37 37 38 38 37 38 38 39 39 40 40 42 38 40 41 44 46

GFSCGP_700_spd_039.txt.gz
Wind_Speed
22 24 26 20 17 15 16 16 17 19 19 21 21 24 23 27 27 27 22 15 18 17 15 16 12 10 9 7 6 5 4 3 3 3 4 5 6 6 7 8 9 10 11 12
26 31 22 20 21 20 20 21 23 23 23 24 25 28 25 25 26 22 17 19 20 18 18 13 9 8 8 7 6 6 6 6 6 6 5 6 7 8 8 8 10 11 12 14
31 25 18 23 24 24 27 27 27 25 23 25 27 32 30 23 18 16 19 21 19 21 16 12 10 8 8 8 8 7 8 8 7 7 7 8 9 9 10 12 13 13 14 16
27 30 32 32 31 27 33 31 28 24 22 14 12 7 9 11 15 18 19 22 24 20 16 14 12 12 11 10 11 11 12 14 14 14 13 13 12 12 14 16 18 21 24 25
32 26 24 27 28 26 34 29 24 19 18 21 20 10 13 14 17 19 22 24 23 19 17 16 15 14 12 12 13 14 14 15 15 14 13 14 15 15 20 20 21 24 26 27
40 39 34 29 27 25 24 17 15 12 12 7 25 22 11 14 9 12 14 21 23 20 19 18 18 16 15 14 15 15 14 14 13 14 15 17 19 22 26 29 30 31 30 33
34 37 35 30 26 22 23 18 4 2 4 6 13 17 25 13 10 13 14 22 22 22 21 20 19 19 17 15 16 17 17 17 18 19 21 24 28 32 34 37 39 40 43 45
17 12 31 32 32 26 30 30 9 7 4 2 10 10 8 17 17 17 17 20 22 23 24 22 22 20 19 18 21 21 21 21 23 26 28 31 35 38 40 42 42 43 44 41
14 16 15 20 31 27 28 34 28 3 4 2 9 11 11 14 15 15 19 23 21 22 23 23 22 21 19 21 22 22 24 26 28 29 33 38 40 41 41 41 42 43 43 41
19 9 17 30 26 33 20 29 16 12 2 5 5 10 13 8 11 16 17 19 23 25 26 25 23 22 22 23 23 24 27 29 32 34 37 42 43 42 42 41 41 41 41 41
36 22 12 28 32 38 37 28 20 14 13 5 2 6 10 13 10 9 11 17 23 24 24 23 23 23 23 24 26 28 31 34 37 40 42 43 41 40 40 40 39 39 39 38
42 24 22 29 31 35 36 39 41 23 9 13 9 14 15 11 14 12 13 17 21 24 25 24 24 24 26 25 30 35 38 40 40 41 41 37 37 37 37 36 34 35 34 35
43 26 13 10 24 30 39 42 39 40 31 32 11 10 14 15 18 13 15 18 21 22 24 26 29 32 29 32 36 40 41 38 38 38 37 36 35 34 34 34 34 34 35 36
35 42 38 32 21 30 44 42 41 39 33 29 40 33 29 29 29 26 20 21 23 25 30 33 33 32 33 38 43 38 36 36 37 37 35 32 32 33 33 32 33 35 37 37
45 44 48 46 31 30 27 31 39 48 46 30 39 41 41 35 33 30 25 30 30 31 31 33 34 34 43 39 33 32 34 35 35 34 32 32 32 31 32 34 36 36 35 35
52 35 50 46 41 33 32 35 37 34 35 38 40 46 43 39 34 32 32 36 34 30 30 32 39 42 33 29 31 32 32 32 33 33 31 30 30 34 35 35 35 34 35 35
53 48 30 25 36 31 25 49 43 42 45 44 46 49 43 36 32 31 31 30 33 35 38 41 39 33 30 32 33 33 30 30 31 30 29 31 34 34 34 34 34 35 35 36
52 43 30 15 19 8 24 31 28 32 35 33 32 33 29 28 27 28 32 33 31 31 32 31 30 32 34 35 35 31 28 27 28 29 32 33 33 33 34 34 34 36 37 37
36 40 19 10 20 13 18 26 26 24 27 23 21 20 19 22 28 31 30 33 34 30 28 31 33 35 37 37 34 30 28 27 30 31 31 31 32 33 34 34 36 37 38 37
33 34 32 15 7 10 17 24 22 17 27 27 26 22 21 23 28 26 27 27 27 27 28 30 34 39 38 34 31 31 30 30 30 28 28 30 31 32 33 35 38 40 39 39
35 33 37 26 14 11 25 25 20 14 21 24 17 18 19 19 18 21 25 26 26 28 33 34 35 35 29 28 30 31 30 29 27 27 28 30 31 32 33 36 39 41 39 38
30 24 23 23 14 13 22 23 26 22 18 19 22 18 15 19 25 25 25 28 31 31 32 33 33 31 27 29 30 30 29 27 27 28 30 31 31 33 35 37 40 41 42 41
18 23 16 17 17 19 16 14 14 16 18 18 21 26 29 28 28 26 28 28 29 32 33 33 28 26 30 31 30 30 29 29 29 29 31 32 32 34 37 38 40 39 41 40
28 30 31 31 35 32 18 14 15 16 19 22 24 25 27 28 26 26 27 30 32 33 33 32 27 27 32 34 33 32 32 31 31 32 35 34 34 36 39 40 40 41 42 43
26 30 32 35 32 21 21 20 15 16 21 24 25 27 28 25 26 28 30 31 32 30 32 32 29 30 35 37 35 34 35 34 33 34 35 36 37 39 41 42 41 43 42 42
32 35 31 25 17 14 10 10 14 20 25 26 26 26 26 28 27 27 29 30 28 28 31 33 35 36 34 36 36 35 35 34 34 35 36 38 39 40 40 41 42 42 40 39

GFSCGP_700_spd_042.txt.gz
Wind_Speed
23 25 26 21 18 20 19 19 20 19 16 20 23 23 25 25 27 28 28 26 23 17 17 17 15 16 15 12 10 8 7 6 5 6 7 8 10 11 10 8 6 5 4 4
25 29 21 20 22 22 22 23 23 23 23 25 26 29 26 31 32 30 28 25 21 19 18 18 15 14 14 12 11 10 9 6 5 6 6 6 6 6 6 5 6 7 8 10
30 27 20 21 25 26 27 27 25 25 26 27 28 34 35 37 36 31 27 22 21 20 19 17 15 15 15 13 12 11 11 10 8 7 7 9 8 8 8 8 10 11 14 15
28 33 31 30 28 25 28 28 26 27 25 19 13 13 17 17 22 24 22 22 22 20 20 19 18 18 17 14 14 13 12 12 12 13 13 13 13 14 15 15 16 17 19 22
28 27 27 30 32 28 29 27 26 28 25 21 19 14 14 26 23 22 22 23 23 22 21 21 21 21 18 16 15 15 14 15 16 17 17 18 18 18 19 20 23 24 28 31
37 34 30 30 26 23 27 23 20 19 17 13 26 23 11 19 19 22 23 24 24 23 23 23 24 22 21 20 18 18 17 17 18 19 18 18 19 21 23 27 28 29 31 32
40 44 42 36 27 26 27 18 6 6 7 8 13 19 25 14 16 16 17 17 18 21 23 24 24 24 23 22 21 20 20 20 19 19 20 20 22 25 26 30 32 34 36 37
18 14 29 32 36 31 32 30 13 7 6 3 14 12 15 23 25 20 19 18 20 24 24 24 26 26 25 24 23 23 22 21 20 22 23 26 30 32 34 35 37 38 39 39
17 18 24 23 22 30 26 31 31 5 3 3 9 12 13 19 26 25 25 23 22 24 24 25 26 27 26 25 24 25 24 22 23 27 29 32 34 36 37 39 40 41 40 40
23 17 17 22 24 30 27 26 18 18 5 6 6 9 17 21 26 24 24 20 20 22 24 26 27 28 27 26 27 27 25 23 27 29 32 34 35 37 39 39 40 40 41 41
35 22 16 22 32 36 36 30 23 17 19 4 3 8 10 18 18 21 20 18 17 21 25 26 28 28 27 29 28 27 26 27 30 33 35 37 38 39 37 37 39 39 38 38
34 20 27 33 28 38 40 32 42 20 11 20 16 16 13 15 21 24 23 17 17 21 25 26 27 27 28 28 27 28 30 31 34 36 39 39 37 36 36 37 37 37 37 38
34 22 15 16 28 33 44 46 43 42 25 33 13 12 20 22 24 25 21 18 17 19 24 27 27 26 27 27 30 32 33 34 37 43 40 36 35 35 36 36 36 37 38 37
38 34 34 32 20 25 46 50 53 50 37 37 48 32 24 27 29 27 21 21 20 22 24 26 27 26 29 34 34 34 34 38 43 37 34 35 35 35 36 36 36 36 36 37
44 45 46 51 42 35 31 42 53 59 64 35 51 43 42 38 33 31 29 29 28 23 26 28 30 31 35 37 37 37 37 41 34 34 35 35 35 35 35 34 34 36 37 38
49 45 44 50 54 53 46 43 46 48 59 61 44 43 33 28 31 34 33 33 28 26 28 30 31 35 37 38 39 40 39 33 34 35 35 35 35 34 33 33 35 37 37 36
52 54 37 42 52 43 28 74 53 51 51 55 50 59 42 35 36 31 34 31 28 30 28 28 33 34 36 39 40 39 32 34 35 34 33 34 33 32 33 34 36 37 37 38
52 51 38 26 23 10 41 38 46 49 45 45 43 40 40 35 31 33 31 31 31 29 29 32 35 37 38 39 34 32 35 35 34 32 32 31 32 33 34 35 36 38 39 39
35 43 30 18 27 19 27 31 36 42 52 52 48 41 31 25 26 27 27 27 28 29 30 30 32 34 33 30 32 35 37 36 32 30 29 29 31 33 35 35 36 38 39 40
31 38 43 17 10 11 27 27 17 21 28 27 23 20 21 22 26 29 30 29 31 31 31 29 27 27 29 32 37 39 37 31 29 28 27 29 31 33 33 34 36 38 39 40
37 35 39 30 16 14 18 15 21 19 15 14 13 16 20 23 24 24 26 28 28 26 24 26 28 30 34 37 36 33 30 29 26 27 27 28 30 31 32 34 36 37 39 40
30 25 26 22 15 16 21 24 23 18 16 15 11 12 14 18 20 20 21 24 25 25 25 29 31 32 32 33 32 29 28 26 26 27 28 30 29 29 32 33 35 37 39 42
22 28 19 23 20 21 15 17 15 12 10 14 14 13 16 19 21 23 22 22 24 26 28 27 28 31 31 28 27 26 23 26 27 28 29 29 30 32 34 35 37 39 41 43
27 21 28 25 27 25 25 20 16 12 10 12 16 19 22 21 21 23 25 25 24 24 24 27 28 29 24 21 23 25 27 30 31 31 31 32 33 35 37 38 38 40 43 44
28 23 29 29 27 15 13 12 9 13 16 19 24 24 22 24 26 27 26 24 24 24 25 27 28 26 22 22 24 28 31 32 34 33 35 36 36 37 39 39 39 41 41 42
29 29 27 21 12 11 8 8 13 18 22 23 25 26 26 27 27 26 25 23 24 25 26 27 27 26 24 27 28 29 31 33 35 35 37 37 36 37 38 40 39 39 41 43

GFSCGP_700_spd_045.txt.gz
Wind_Speed
28 27 30 26 23 20 19 14 16 14 20 20 21 22 20 27 28 30 30 30 30 30 27 23 19 18 18 19 18 15 12 10 9 9 9 10 11 12 12 12 10 8 7 7
27 32 26 19 22 21 24 22 22 19 24 23 24 27 29 27 36 33 35 35 34 30 26 22 21 20 19 18 17 15 14 13 12 11 11 11 11 11 10 10 9 9 9 11
31 22 19 25 26 27 27 24 22 19 22 23 28 36 39 37 43 43 40 40 35 31 27 24 24 21 20 19 19 18 17 14 13 12 10 11 11 11 11 12 12 13 15 18
28 29 30 28 28 25 23 21 24 23 19 18 14 16 18 14 29 27 30 38 37 32 28 26 24 21 21 21 20 19 18 16 14 12 11 11 12 14 14 15 17 19 20 23
26 28 30 34 35 29 23 22 24 21 22 23 26 17 27 26 38 35 33 28 31 30 28 26 24 22 22 22 20 19 18 16 15 14 13 14 15 17 19 20 22 23 25 28
36 31 29 26 27 24 27 24 24 23 16 19 28 27 28 30 27 28 27 24 25 26 26 25 25 23 23 23 22 20 19 18 17 17 17 18 19 20 23 24 25 27 28 29
32 44 42 36 33 29 26 15 7 6 7 8 11 22 38 10 19 20 22 25 25 27 27 27 26 24 24 24 23 22 22 21 21 21 22 22 21 22 24 26 27 29 32 33
24 15 31 36 42 25 25 28 12 6 6 5 10 14 17 22 28 24 23 26 27 27 26 25 25 25 25 25 25 25 25 24 24 24 24 24 23 23 26 29 33 36 39 40
19 17 18 20 17 27 14 27 30 18 20 7 13 16 23 21 25 31 28 26 25 24 23 24 25 25 25 26 27 28 28 27 27 27 26 24 26 27 32 34 36 39 41 42
22 12 18 19 23 25 27 14 15 19 6 8 11 22 22 18 28 28 34 31 27 24 22 22 22 23 25 27 29 31 31 30 28 27 27 28 30 31 34 38 41 42 41 39
34 26 20 22 28 31 34 26 17 17 22 4 5 10 15 20 19 25 30 32 29 27 23 21 22 25 27 30 32 32 32 31 31 30 30 31 32 34 37 41 42 40 38 39
38 24 29 31 27 27 28 25 35 17 10 23 18 26 16 9 16 22 27 30 29 27 22 22 24 28 30 31 33 33 33 32 33 32 33 35 34 37 40 41 39 38 38 39
38 27 19 19 23 27 37 44 36 43 23 35 14 21 20 23 20 25 31 35 34 29 24 22 26 29 32 34 34 33 33 34 33 35 36 36 37 40 42 39 38 38 38 39
39 36 37 34 19 16 33 45 51 45 37 44 52 42 29 24 23 26 31 34 36 29 25 23 25 29 34 35 33 32 33 34 37 39 38 37 37 37 38 37 37 38 38 38
45 41 45 53 47 34 27 28 35 56 69 36 67 47 39 35 30 27 31 38 36 30 29 27 27 30 33 33 31 32 36 39 40 40 39 37 36 37 38 37 38 37 37 36
46 41 41 58 55 51 52 48 46 49 48 59 64 57 28 31 36 37 36 40 39 34 29 28 27 31 32 33 34 37 40 43 43 43 41 34 36 38 38 37 36 37 35 37
45 49 40 43 36 40 26 78 56 58 57 52 56 62 49 42 37 35 38 38 36 33 32 31 28 31 33 35 36 40 43 45 45 40 39 36 38 39 38 36 36 34 36 38
51 51 41 32 21 12 58 39 30 43 55 52 58 56 45 42 37 36 42 34 36 35 36 31 30 32 32 37 40 43 44 44 43 40 37 38 38 37 36 35 34 35 37 38
48 46 28 20 28 30 32 32 33 34 46 42 49 49 49 39 44 44 38 36 35 30 29 29 29 31 34 36 37 40 42 44 39 38 40 37 34 34 34 34 34 36 37 38
38 41 43 18 9 10 30 26 30 23 38 33 30 39 40 38 40 43 39 26 26 26 28 30 31 33 35 36 37 40 39 38 38 40 35 31 31 33 33 33 35 36 37 37
34 36 41 37 18 19 30 22 16 17 17 14 20 24 35 43 34 25 25 25 26 29 31 31 29 30 32 34 34 35 37 40 38 35 33 31 31 31 31 33 35 36 35 36
27 24 23 25 13 14 24 20 22 21 18 14 16 18 22 25 23 20 22 26 29 29 28 27 26 27 29 32 35 39 41 36 33 30 30 29 29 30 31 33 34 34 35 36
23 29 16 23 15 19 17 22 27 30 26 27 24 16 15 17 20 23 25 24 23 25 27 27 27 29 33 36 37 36 34 31 28 28 28 28 30 31 32 32 34 36 37 39
32 31 34 30 28 24 21 22 23 22 19 16 17 16 15 14 17 21 24 26 25 24 24 27 30 30 30 32 33 32 29 26 27 28 28 30 32 32 34 35 37 39 40 41
32 24 32 30 31 20 17 18 18 17 18 19 16 13 15 18 22 24 25 24 24 25 27 26 26 25 26 28 28 28 27 27 29 31 32 34 36 36 37 39 41 41 41 42
28 29 26 23 26 24 18 14 13 14 12 13 13 16 22 25 25 24 26 25 25 24 23 24 24 25 26 28 29 28 27 28 30 33 35 38 39 40 40 42 39 40 42 42

GFSCGP_700_spd_048.txt.gz
Wind_Speed
26 27 31 25 24 22 20 19 17 13 15 21 26 28 25 26 28 29 30 30 29 31 30 30 29 26 21 20 19 18 17 16 15 15 15 14 12 13 12 12 11 9 7 6
25 32 23 24 19 21 22 23 26 24 24 27 30 33 30 28 34 34 35 37 36 36 33 33 30 26 22 21 20 20 18 16 14 13 13 12 12 10 10 9 8 8 9 10
30 24 14 17 25 26 27 26 25 22 22 26 29 38 38 37 40 42 43 44 45 42 38 34 30 26 24 22 21 18 16 16 15 14 13 13 11 10 9 10 11 12 13 15
29 31 30 26 25 23 27 24 21 23 23 18 15 11 24 17 20 31 35 34 37 34 35 36 30 28 25 23 21 19 18 17 16 16 15 14 12 12 12 13 14 15 18 21
30 29 29 31 35 27 28 26 23 25 26 25 32 24 33 27 28 39 42 38 39 37 33 31 30 28 26 25 22 22 22 20 20 18 18 16 16 16 17 17 18 19 20 23
35 33 23 26 27 27 28 25 23 22 22 12 30 30 26 31 29 29 35 37 38 35 30 29 29 29 28 25 25 25 24 22 22 21 20 19 18 19 19 20 21 22 23 25
37 43 37 33 28 24 24 19 3 4 5 8 9 20 41 10 17 21 26 29 30 27 24 27 27 28 28 27 26 26 25 24 24 24 23 21 20 21 22 23 24 24 26 28
31 15 32 40 46 33 27 32 13 7 5 4 9 14 18 23 22 31 30 26 26 25 25 26 26 27 26 25 26 26 26 25 25 25 24 23 24 25 26 27 27 27 28 31
18 18 17 20 12 31 20 30 30 18 19 8 15 31 37 32 34 31 27 30 26 28 28 26 27 26 26 26 25 26 26 27 27 27 26 26 27 28 28 28 28 30 33 36
23 12 20 24 23 25 24 16 17 23 3 6 9 25 27 13 21 25 26 28 29 26 26 27 26 26 25 26 27 28 28 29 30 30 30 30 31 30 29 30 32 35 37 38
41 29 15 24 28 30 38 28 15 16 17 4 5 13 16 16 20 20 21 25 28 28 26 26 25 24 25 27 28 29 31 32 32 32 33 33 32 31 31 33 35 36 37 40
41 28 22 31 27 26 33 36 41 23 12 26 24 45 20 11 10 14 20 23 27 31 29 28 28 26 26 26 27 30 33 33 34 35 35 34 33 32 33 36 36 36 38 38
38 28 17 16 22 25 34 40 42 38 30 41 13 34 12 18 26 20 21 22 28 33 35 35 34 30 25 25 29 33 34 35 37 37 36 35 34 35 36 37 37 38 38 38
29 34 36 34 21 23 40 47 49 46 40 29 54 47 33 27 22 18 19 26 27 29 37 39 37 29 25 25 30 33 36 38 39 38 37 36 36 37 38 39 39 41 38 37
42 45 45 54 46 30 21 28 38 55 61 37 59 51 48 45 45 44 33 29 32 32 35 39 38 30 26 27 29 34 39 40 39 38 38 37 39 40 39 39 38 37 38 37
43 38 42 58 54 53 52 40 34 37 42 54 56 65 39 36 33 37 40 38 38 38 37 40 38 30 28 27 29 36 39 39 38 39 39 41 42 41 40 38 36 39 39 38
47 46 37 39 34 36 27 70 64 61 58 56 58 70 50 46 47 42 35 36 35 37 38 40 33 28 29 27 30 34 36 36 39 40 42 44 44 43 42 35 38 40 38 37
49 51 43 32 17 11 47 41 29 41 44 53 60 60 62 48 39 42 46 45 42 40 45 40 33 38 30 29 31 32 33 38 40 43 45 46 46 44 37 39 39 38 36 35
50 48 31 20 28 32 31 33 34 35 45 39 40 39 45 46 48 43 39 42 44 45 47 50 53 40 26 27 29 31 36 40 42 43 44 44 42 39 39 39 38 36 35 36
43 44 48 18 9 9 23 21 24 26 41 34 32 36 35 36 44 43 43 42 40 45 49 51 39 30 28 30 31 32 35 37 40 42 41 41 40 40 41 37 35 34 35 35
36 39 42 38 21 15 29 25 16 16 26 20 16 17 21 32 35 34 34 40 42 38 39 29 22 24 28 30 32 34 35 37 38 41 41 39 40 39 36 34 34 33 33 34
27 22 22 25 12 13 23 21 20 22 25 26 24 18 18 24 26 30 33 32 28 22 20 22 24 27 29 30 33 36 36 35 36 38 39 39 37 35 33 32 31 32 33 34
22 29 21 18 14 21 22 20 20 22 24 20 16 13 16 16 18 24 23 20 19 20 21 24 25 25 25 26 29 30 30 34 37 38 36 36 34 33 31 31 31 32 33 34
27 29 32 27 30 31 27 27 28 25 25 21 21 22 21 17 17 18 19 21 23 22 21 22 24 24 25 27 30 33 35 34 34 35 34 33 32 31 31 31 32 34 35 36
30 25 31 31 32 26 24 23 25 23 19 18 17 16 17 19 19 19 20 22 23 24 24 22 22 24 28 30 31 31 30 29 29 30 31 30 30 32 33 35 37 38 39 40
25 24 24 26 24 26 24 20 18 17 17 19 19 18 17 18 18 20 23 23 23 22 23 24 25 26 26 26 27 27 27 27 27 28 29 31 33 35 37 40 42 43 44 43